Regional Weather Roundup
Issued by NWS

Home | Current Version | Previous Version | Graphics & Text | Print | Product List | Glossary Off
Versions: 1 2 3 4 5 6 7 8 9 10 11 12 13 14 15 16 17 18 19 20 21 22 23 24 25 26 27 28 29 30 31 32 33 34 35 36 37 38 39 40 41 42 43 44 45 46 47 48 49 50

000
ASUS43 KMKX 210821
RWRWI

WISCONSIN REGIONAL WEATHER ROUNDUP
NATIONAL WEATHER SERVICE MILWAUKEE/SULLIVAN WI
300 AM CDT SUN SEP 21 2014

NOTE: "FAIR" INDICATES FEW OR NO CLOUDS BELOW 12,000 FEET WITH NO
SIGNIFICANT WEATHER AND/OR OBSTRUCTIONS TO VISIBILITY.

WIZ001-002-006>008-014>016-023>028-210900-
NORTHWEST WISCONSIN

CITY           SKY/WX    TMP DP  RH WIND       PRES   REMARKS
SUPERIOR ARPT  CLOUDY    54  52  94 N9        29.80R
ASHLAND        CLOUDY    53  51  93 NE18      29.77R
HAYWARD        LGT RAIN  54  52  93 VRB7      29.76R
SIREN          LGT RAIN  51  49  93 NW13G20   29.82R
RICE LAKE      DRIZZLE   51  48  90 W16G22    29.79R
LADYSMITH      CLOUDY    53  52  94 NW14      29.74R
EAU CLAIRE     CLOUDY    54  48  80 NW18G25   29.77R
MENOMONIE      CLOUDY    55  46  71 W18G26    29.80R
NEW RICHMOND   MOCLDY    52  46  79 NW12G22   29.84R
OSCEOLA        MOCLDY    54  48  80 NW8       29.87R
$$

WIZ003>005-009-010-017-018-210900-
NORTH CENTRAL WISCONSIN

CITY           SKY/WX    TMP DP  RH WIND       PRES   REMARKS
WOODRUFF       RAIN      52  50  93 NW7       29.70R
RHINELANDER    LGT RAIN  52  50  93 N3        29.69R
EAGLE RIVER    HVY RAIN  51  51  99 N8        29.69R
LAND O LAKES   RAIN      53  52  97 NE8       29.71R
PHILLIPS       RAIN      51  50  97 NW3       29.70R
TOMAHAWK       CLOUDY    51  51  97 NW5       29.69S
MEDFORD        CLOUDY    51  50  97 W10       29.70R FOG
MERRILL        DRIZZLE   53  53  97 NW7       29.68S
$$

WIZ029-030-035-036-043>047-210900-
CENTRAL WISCONSIN

CITY           SKY/WX    TMP DP  RH WIND       PRES   REMARKS
WAUSAU         LGT RAIN  54  52  93 W12       29.66F
MOSINEE        DRIZZLE   52  52 100 W13       29.69F
MARSHFIELD     CLOUDY    55  50  83 W15G22    29.70F
STEVENS POINT  DRIZZLE   53  51  92 W8G17     29.69F
WAUPACA        PTCLDY    57  55  92 W8        29.68F
WAUTOMA        PTCLDY    56  52  86 W17G26    29.71F
WISC RAPIDS    MOCLDY    54  51  90 W13G21    29.72F
CAMP DOUGLAS   PTCLDY    54  54  99 W14G20    29.74S
$$

WIZ011>013-019>022-031-037>040-048>050-210900-
NORTHEAST WISCONSIN

CITY           SKY/WX    TMP DP  RH WIND       PRES   REMARKS
ANTIGO         CLOUDY    52  51  97 NW3       29.68S
STURGEON BAY   MOCLDY    55  52  88 NE8       29.64R
GREEN BAY      MOCLDY    57  55  93 W9        29.66S
MANITOWOC      CLEAR     57  55  93 W14G21    29.64F
APPLETON       CLOUDY    54  54 100 W8        29.67F
CLINTONVILLE   CLOUDY    55  54  94 NW5       29.66F
OSHKOSH        CLOUDY    57  54  89 W13G21    29.67F
$$

WIZ032>034-041-042-053>061-210900-
SOUTHWEST WISCONSIN

CITY           SKY/WX    TMP DP  RH WIND       PRES   REMARKS
LA CROSSE      PTCLDY    60  50  69 W18G24    29.79S
SPARTA         MOCLDY    55  48  76 W9G17     29.78S
VIROQUA        FAIR      54  53  95 W12       29.79F
BOSCOBEL       CLEAR     57  52  83 SW8       29.81F
PRAIRIE DU CHI CLEAR     56  51  86 W6        29.84S
PLATTEVILLE    FAIR      55  53  93 W12G17    29.84S
$$

WIZ056-057-062-063-064-067-068-210900-
SOUTH CENTRAL WISCONSIN

CITY           SKY/WX    TMP DP  RH WIND       PRES   REMARKS
BARABOO/DELLS  CLEAR     54  49  84 W8        29.75S
LONE ROCK      CLEAR     59  52  77 W7        29.77F
WATERTOWN      PTCLDY    56  54  93 W8        29.73S
MADISON        CLEAR     57  51  80 W6        29.75F
MIDDLETON      FAIR      56  54  92 W12G17    29.76F
MONROE         CLEAR     55  52  88 W12       29.80S
JANESVILLE     CLEAR     59  52  77 W12       29.77S
$$

WIZ051-052-058>065-066-070>072-210900-
SOUTHEAST WISCONSIN

CITY           SKY/WX    TMP DP  RH WIND       PRES   REMARKS
MILWAUKEE      MOCLDY    61  55  81 W14G30    29.70R
WAUKESHA       CLOUDY    55  54  94 W15       29.72S
MILWAUKEE/TIMM PTCLDY    59  52  77 W15G24    29.70S
RACINE         MOCLDY    61  56  83 W15G25    29.71S
BURLINGTON     PTCLDY    57  54  88 W10G17    29.73S
KENOSHA        PTCLDY    60  56  86 NW18G25   29.72R
FOND DU LAC    PTCLDY    57  52  83 W12       29.70S
SHEBOYGAN      MOCLDY    58  54  86 W13       29.67R
WEST BEND      CLOUDY    57  52  82 W13G23    29.69S
JUNEAU         PTCLDY    56  53  89 W8G16     29.73S
$$

LSZ147-162-210900-
LAKE SUPERIOR

STATION/POSITION TIME  TEMP    WIND        PRES    WAVE
                       AIR SEA DIR/SP/G            HT/PER
                 (UTC) (F)     (DEG/KT/KT) (MB)    (FT/S)
W MID LAKE BUOY  0750   49 46   30/ 16/ 17 1008.0R   2/ 4
DEVILS ISLAND    0800   51      40/ 18/ 22 1009.1R
PORT WING        0800   52      30/ 23     1009.5R
SAXON HARBOR     0800   54      50/ 20     1007.8R
$$

LMZ867-665-643>646-210900-
LAKE MICHIGAN

STATION/POSITION TIME  TEMP    WIND        PRES    WAVE
                       AIR SEA DIR/SP/G            HT/PER
                 (UTC) (F)     (DEG/KT/KT) (MB)    (FT/S)
N MID LAKE BUOY  0750   57 58   20/ 10/ 14 1003.2S   2/ 3
NORTHPORT PIER   0700   56      70/  2/ 13 1004.1F
SISTER BAY       0612             CALM       N/A
KEWAUNEE LAKESHO 0800   56     330/  5/  6 1002.6R
SHEBOYGAN LAKESH 0800   59 54  280/ 16/ 19 1004.5R
PORT WASHINGTON  0740   60     300/  7/ 14 1005.8R
ATWATER BUOY     0800   60     260/ 17/ 23 1006.5R
MILWAUKEE LAKESH 0800   61     290/ 14/ 20   N/A
S MID LAKE BUOY  0750   63 63  270/ 17/ 21 1004.5R   2/ 4
KENOSHA   LAKESH 0800   62     290/ 13/ 26 1005.8S
$$

TC  - TEMPERATURE IN CELSIUS
VSB - VISIBILITY IN STATUTE MILES
WCI - WIND CHILL INDEX
HX  - HEAT INDEX



USA.gov is the U.S. government's official web portal to all federal, state and local government web resources and services.